Weather History for KBWG - December, 2013

Change the Weather History Date:

Sunday, December 29, 2013

  Actual Average Record
Temperature  
Mean Temperature 41 °F 36 °F  
Max Temperature 51 °F 45 °F 69 °F (1907)
Min Temperature 31 °F 27 °F -5 °F (1880)
Degree Days  
Heating Degree Days 24 29  
Month to date heating degree days 736 761  
Since 1 July heating degree days 1616 1524  
Cooling Degree Days 0 0  
Month to date cooling degree days 2 0  
Year to date cooling degree days 1501 1491  
Moisture  
Dew Point 36 °F    
Average Humidity 83    
Maximum Humidity 100    
Minimum Humidity 66    
Precipitation  
Precipitation 0.33 in 0.14 in 2.29 in (1969)
Month to date precipitation 5.01 4.54  
Year to date precipitation 59.66 49.63  
Snow  
Snow 0.00 in 0.10 in 8.00 in (1935)
Month to date snowfall 0.1 1.1  
Since 1 July snowfall 1.2 1.1  
Snow Depth 0.00 in    
Sea Level Pressure  
Sea Level Pressure 29.99 in    
Wind  
Wind Speed 8 mph (West)    
Max Wind Speed 18 mph    
Max Gust Speed 34 mph    
Visibility 7 miles    
Events Rain    
T = Trace of Precipitation, MM = Missing Value Source: NWS Daily Summary

Daily Weather History Graph

Daily Weather History Graph

Search for Another Location

Airport or City:

Trip Planner

Search our weather history database for the weather conditions in past years. The results will help you decide how hot, cold, wet, or windy it might be!

Date:

Astronomy

Dec. 29, 2013 Rise Set
Actual Time 6:58 AM CST 4:37 PM CST
Civil Twilight 6:29 AM CST 5:06 PM CST
Nautical Twilight 5:56 AM CST 5:39 PM CST
Astronomical Twilight 5:25 AM CST 6:10 PM CST
Moon 3:43 AM CST (12/29) 2:13 PM CST (12/29)
Length of Visible Light 10h 37m
Length of Day
9h 39m
Waning Crescent, 11% of the Moon is Illuminated
Dec 29
Waning Crescent
Jan 1
New
Jan 7
First Quarter
Jan 15
Full
Jan 23
Last Quarter

Hourly Weather History & Observations

Time (CST) Temp. Windchill Dew Point Humidity Pressure Visibility Wind Dir Wind Speed Gust Speed Precip Events Conditions
12:15 AM 39.0 °F - 37.9 °F 96% 29.98 in 3.0 mi Calm Calm - 0.03 in Rain Rain
12:53 AM 39.0 °F - 37.9 °F 96% 29.96 in 4.0 mi Calm Calm - 0.06 in Rain Light Rain
1:16 AM 39.0 °F - 37.9 °F 96% 29.95 in 4.0 mi Calm Calm - 0.02 in Rain Light Rain
1:44 AM 39.0 °F - 37.9 °F 96% 29.94 in 5.0 mi Calm Calm - 0.03 in Rain Light Rain
1:53 AM 39.0 °F - 37.9 °F 96% 29.95 in 4.0 mi Calm Calm - 0.03 in Rain Light Rain
2:23 AM 39.0 °F 35.7 °F 37.9 °F 96% 29.95 in 2.0 mi West 4.6 mph - 0.03 in Rain Rain
2:44 AM 39.0 °F - 39.0 °F 100% 29.94 in 3.0 mi Calm Calm - 0.07 in Rain Light Rain
2:51 AM 39.2 °F - 39.2 °F 100% 29.95 in 3.0 mi Calm Calm - 0.07 in Rain Light Rain
2:53 AM 39.0 °F - 39.0 °F 100% 29.95 in 3.0 mi Calm Calm - 0.07 in Rain Light Rain
3:03 AM 39.0 °F - 39.0 °F 100% 29.94 in 4.0 mi Calm Calm - 0.01 in Rain Light Rain
3:25 AM 39.0 °F - 37.9 °F 96% 29.92 in 4.0 mi Calm Calm - 0.03 in Rain Light Rain
3:53 AM 39.0 °F 35.7 °F 37.9 °F 96% 29.96 in 4.0 mi West 4.6 mph - 0.04 in Rain Light Rain
4:53 AM 39.0 °F 35.7 °F 37.9 °F 96% 29.94 in 5.0 mi WNW 4.6 mph - 0.06 in Rain Light Rain
5:53 AM 39.0 °F 36.8 °F 37.9 °F 96% 29.95 in 6.0 mi WNW 3.5 mph - 0.03 in Rain Light Rain
6:22 AM 39.0 °F 35.7 °F 37.9 °F 96% 29.95 in 8.0 mi West 4.6 mph - 0.00 in Rain Light Rain
6:38 AM 39.0 °F - 39.0 °F 100% 29.95 in 7.0 mi Calm Calm - 0.00 in Rain Light Rain
6:53 AM 39.0 °F - 37.9 °F 96% 29.96 in 8.0 mi Calm Calm - 0.00 in Rain Light Rain
7:12 AM 39.9 °F 36.7 °F 37.9 °F 93% 29.95 in 6.0 mi SSW 4.6 mph - 0.01 in Rain Light Rain
7:25 AM 39.9 °F 37.8 °F 37.9 °F 93% 29.95 in 4.0 mi SSW 3.5 mph - 0.02 in Rain Light Rain
7:53 AM 39.9 °F 36.7 °F 37.9 °F 93% 29.96 in 5.0 mi SW 4.6 mph - 0.02 in Rain Light Rain
8:53 AM 39.9 °F 37.8 °F 39.0 °F 97% 29.97 in 6.0 mi SW 3.5 mph - 0.03 in Rain Light Rain
9:00 AM 39.9 °F 36.7 °F 39.0 °F 97% 29.96 in 6.0 mi SW 4.6 mph - 0.00 in   Overcast
9:15 AM 41.0 °F 37.1 °F 39.0 °F 93% 29.96 in 6.0 mi SW 5.8 mph - 0.00 in   Overcast
9:40 AM 42.1 °F 36.6 °F 39.9 °F 92% 29.97 in 8.0 mi SW 9.2 mph - 0.00 in   Mostly Cloudy
9:53 AM 43.0 °F 38.8 °F 41.0 °F 93% 29.98 in 8.0 mi SW 6.9 mph - 0.00 in   Mostly Cloudy
10:53 AM 45.0 °F 40.6 °F 41.0 °F 86% 29.98 in 10.0 mi WSW 8.1 mph - N/A   Mostly Cloudy
11:10 AM 46.0 °F 40.6 °F 39.9 °F 79% 29.96 in 10.0 mi WSW 11.5 mph - N/A   Scattered Clouds
11:53 AM 48.0 °F - 39.0 °F 71% 29.94 in 10.0 mi WSW 12.7 mph - N/A   Partly Cloudy
12:53 PM 48.9 °F - 39.0 °F 69% 29.93 in 10.0 mi SW 12.7 mph - N/A   Partly Cloudy
1:53 PM 50.0 °F - 39.0 °F 66% 29.91 in 10.0 mi SW 10.4 mph - N/A   Partly Cloudy
2:43 PM 50.0 °F - 39.9 °F 68% 29.92 in 10.0 mi SW 11.5 mph - N/A   Mostly Cloudy
2:53 PM 50.0 °F - 39.0 °F 66% 29.93 in 10.0 mi West 8.1 mph - N/A   Overcast
3:02 PM 50.0 °F - 39.9 °F 68% 29.93 in 10.0 mi SW 9.2 mph - N/A   Overcast
3:53 PM 50.0 °F - 39.0 °F 66% 29.96 in 10.0 mi WSW 8.1 mph - N/A   Overcast
4:31 PM 48.9 °F - 39.9 °F 71% 29.97 in 10.0 mi West 9.2 mph - N/A   Overcast
4:53 PM 46.0 °F 39.6 °F 37.9 °F 73% 29.99 in 10.0 mi NW 15.0 mph 25.3 mph N/A   Overcast
5:43 PM 39.0 °F 31.0 °F 33.1 °F 79% 30.03 in 8.0 mi NW 13.8 mph 19.6 mph N/A   Overcast
5:53 PM 37.9 °F 31.5 °F 33.1 °F 83% 30.04 in 8.0 mi NNW 9.2 mph 19.6 mph N/A   Overcast
6:53 PM 36.0 °F 26.7 °F 30.9 °F 82% 30.08 in 7.0 mi NW 15.0 mph 26.5 mph N/A   Overcast
7:53 PM 34.0 °F 27.2 °F 28.9 °F 82% 30.12 in 8.0 mi NW 8.1 mph - N/A   Overcast
8:53 PM 32.0 °F 24.2 °F 27.0 °F 82% 30.14 in 10.0 mi NNW 9.2 mph 18.4 mph N/A   Overcast
9:25 PM 32.0 °F 24.2 °F 27.0 °F 82% 30.12 in 10.0 mi NNW 9.2 mph - N/A   Overcast
9:53 PM 32.0 °F 24.2 °F 26.1 °F 79% 30.14 in 10.0 mi NW 9.2 mph - N/A   Overcast
10:13 PM 30.9 °F 22.2 °F 26.1 °F 82% 30.13 in 10.0 mi NW 10.4 mph - N/A   Overcast
10:53 PM 30.9 °F 23.5 °F 25.0 °F 79% 30.16 in 10.0 mi NNW 8.1 mph - N/A   Overcast
11:04 PM 30.9 °F 22.8 °F 25.0 °F 79% 30.15 in 10.0 mi NW 9.2 mph - N/A   Overcast
11:53 PM 30.9 °F 22.8 °F 25.0 °F 79% 30.17 in 10.0 mi NW 9.2 mph - N/A   Overcast